Weather History for KACT - October, 2012

Change the Weather History Date:

Wednesday, October 17, 2012

  Actual Average Record
Temperature  
Mean Temperature 75 °F 68 °F  
Max Temperature 93 °F 80 °F 93 °F (1947)
Min Temperature 57 °F 56 °F 39 °F (2001)
Degree Days  
Heating Degree Days 0 2  
Month to date heating degree days 33 20  
Since 1 July heating degree days 33 26  
Cooling Degree Days 10 5  
Month to date cooling degree days 108 109  
Year to date cooling degree days 3106 2703  
Growing Degree Days 28 (Base 50)    
Moisture  
Dew Point 60 °F    
Average Humidity 60    
Maximum Humidity 93    
Minimum Humidity 26    
Precipitation  
Precipitation 0.00 in 0.14 in 3.12 in (1912)
Month to date precipitation 0.06 2.14  
Year to date precipitation 31.53 27.36  
Snow  
Snow 0.00 in 0.00 in 0.00 in ()
Month to date snowfall 0.0 0.0  
Since 1 July snowfall 0.0 0.0  
Since 1 September snowfall 0.0 0.0  
Snow Depth 0.00 in    
Sea Level Pressure  
Sea Level Pressure 29.68 in    
Wind  
Wind Speed 13 mph (SW)    
Max Wind Speed 22 mph    
Max Gust Speed 28 mph    
Visibility 10 miles    
Events      
T = Trace of Precipitation, MM = Missing Value Source: NWS Daily Summary

Daily Weather History Graph

Daily Weather History Graph

Search for Another Location

Airport or City:

Trip Planner

Search our weather history database for the weather conditions in past years. The results will help you decide how hot, cold, wet, or windy it might be!

Date:

Astronomy

Oct. 17, 2012 Rise Set
Actual Time 7:33 AM CDT 6:53 PM CDT
Civil Twilight 7:09 AM CDT 7:18 PM CDT
Nautical Twilight 6:40 AM CDT 7:46 PM CDT
Astronomical Twilight 6:12 AM CDT 8:15 PM CDT
Moon 9:58 AM CDT (10/17) 8:42 PM CDT (10/17)
Length of Visible Light 12h 09m
Length of Day
11h 20m
Waxing Crescent, 7% of the Moon is Illuminated
Oct 17
Waxing Crescent
Oct 21
First Quarter
Oct 29
Full
Nov 6
Last Quarter
Nov 13
New

Hourly Weather History & Observations

Time (CDT) Temp. Heat Index Dew Point Humidity Pressure Visibility Wind Dir Wind Speed Gust Speed Precip Events Conditions
12:51 AM 66.0 °F - 62.1 °F 87% 29.74 in 10.0 mi SSW 15.0 mph - N/A   Overcast
1:38 AM 66.2 °F - 62.6 °F 88% 29.75 in 10.0 mi South 19.6 mph 24.2 mph N/A   Overcast
1:51 AM 66.0 °F - 61.0 °F 84% 29.74 in 10.0 mi South 13.8 mph - N/A   Overcast
2:51 AM 66.9 °F - 61.0 °F 81% 29.73 in 10.0 mi South 17.3 mph - N/A   Overcast
3:16 AM 66.2 °F - 60.8 °F 83% 29.73 in 10.0 mi South 17.3 mph - N/A   Scattered Clouds
3:51 AM 64.9 °F - 62.1 °F 90% 29.70 in 10.0 mi South 12.7 mph - N/A   Partly Cloudy
4:07 AM 66.2 °F - 62.6 °F 88% 29.72 in 10.0 mi South 16.1 mph - N/A   Mostly Cloudy
4:51 AM 66.9 °F - 62.1 °F 84% 29.69 in 10.0 mi South 16.1 mph 24.2 mph N/A   Overcast
5:51 AM 66.9 °F - 63.0 °F 87% 29.68 in 10.0 mi South 13.8 mph 21.9 mph N/A   Overcast
6:19 AM 66.2 °F - 62.6 °F 88% 29.70 in 10.0 mi South 16.1 mph 23.0 mph N/A   Overcast
6:51 AM 66.9 °F - 63.0 °F 87% 29.68 in 9.0 mi South 13.8 mph 25.3 mph N/A   Overcast
7:51 AM 68.0 °F - 64.4 °F 88% 29.68 in 9.0 mi South 19.6 mph 27.6 mph N/A   Overcast
8:51 AM 69.1 °F - 64.9 °F 87% 29.67 in 10.0 mi South 15.0 mph - N/A   Overcast
9:07 AM 69.8 °F - 64.4 °F 83% 29.69 in 10.0 mi SSW 15.0 mph - N/A   Overcast
9:51 AM 73.4 °F - 66.2 °F 78% 29.68 in 10.0 mi South 17.3 mph 25.3 mph N/A   Mostly Cloudy
10:03 AM 73.4 °F - 64.4 °F 73% 29.67 in 10.0 mi South 17.3 mph - N/A   Mostly Cloudy
10:10 AM 75.2 °F - 66.2 °F 73% 29.67 in 10.0 mi South 18.4 mph - N/A   Scattered Clouds
10:51 AM 77.0 °F - 66.0 °F 69% 29.66 in 10.0 mi South 17.3 mph - N/A   Clear
11:51 AM 82.0 °F 84.1 °F 66.0 °F 58% 29.63 in 10.0 mi SSW 17.3 mph 25.3 mph N/A   Clear
12:51 PM 87.1 °F 89.2 °F 66.0 °F 49% 29.61 in 10.0 mi SSW 17.3 mph 24.2 mph N/A   Clear
1:51 PM 90.0 °F 92.4 °F 66.0 °F 45% 29.59 in 10.0 mi SW 13.8 mph - N/A   Partly Cloudy
2:51 PM 93.0 °F 92.0 °F 57.9 °F 31% 29.56 in 10.0 mi West 17.3 mph 26.5 mph N/A   Clear
3:51 PM 91.9 °F 90.8 °F 57.9 °F 32% 29.56 in 10.0 mi NW 15.0 mph 19.6 mph N/A   Clear
4:51 PM 91.0 °F 88.7 °F 54.0 °F 28% 29.57 in 10.0 mi NW 17.3 mph - N/A   Clear
5:51 PM 87.1 °F - 48.9 °F 27% 29.61 in 10.0 mi NNW 16.1 mph - N/A   Clear
6:51 PM 81.0 °F - 48.9 °F 33% 29.63 in 10.0 mi NNW 11.5 mph - N/A   Clear
7:51 PM 75.9 °F - 51.1 °F 42% 29.68 in 10.0 mi North 9.2 mph - N/A   Clear
8:51 PM 73.0 °F - 51.1 °F 46% 29.71 in 10.0 mi North 9.2 mph - N/A   Clear
9:51 PM 70.0 °F - 51.1 °F 51% 29.73 in 10.0 mi NNW 11.5 mph - N/A   Clear
10:51 PM 66.0 °F - 50.0 °F 56% 29.75 in 10.0 mi North 3.5 mph - N/A   Clear
11:51 PM 63.0 °F - 46.9 °F 56% 29.76 in 10.0 mi North 5.8 mph - N/A   Clear